| time (UTC) | temp F | wind direction | speed knots | gust knots | rain 1hr in | rain 24hr in | rain mn in | humidity % | barometer mb |
| 20260504081548 | 41 | 171 | 0.9 | 2.6 | 0.00 | 0.01 | 0.00 | 73 | 1009.1 |
| 20260504044529 | 40 | 193 | 1.7 | 2.6 | 0.00 | 0.01 | 0.00 | 56 | 1009.7 |
| 20260504043025 | 41 | 293 | 0.9 | 2.6 | 0.00 | 0.01 | 0.00 | 54 | 1009.8 |
| 20260504041538 | 42 | 317 | 0.9 | 2.6 | 0.00 | 0.01 | 0.00 | 53 | 1009.9 |
| 20260504040023 | 42 | 338 | 1.7 | 6.1 | 0.00 | 0.01 | 0.00 | 53 | 1009.8 |
| 20260504034522 | 41 | 360 | 1.7 | 3.5 | 0.00 | 0.01 | 0.01 | 54 | 1009.9 |
| 20260504033020 | 41 | 315 | 0.9 | 2.6 | 0.00 | 0.01 | 0.01 | 56 | 1009.8 |
| 20260504031520 | 41 | 28 | 0.9 | 2.6 | 0.00 | 0.01 | 0.01 | 56 | 1009.8 |
| 20260504030020 | 40 | 26 | 0.9 | 2.6 | 0.00 | 0.01 | 0.01 | 59 | 1010.0 |
| 20260504024518 | 39 | 24 | 0.9 | 3.5 | 0.00 | 0.01 | 0.01 | 60 | 1010.2 |
| 20260504023018 | 40 | 19 | 0.9 | 2.6 | 0.00 | 0.01 | 0.01 | 59 | 1010.2 |
| 20260504021516 | 40 | 19 | 0.9 | 2.6 | 0.00 | 0.01 | 0.01 | 58 | 1010.2 |
| 20260504020031 | 41 | 17 | 0.9 | 3.5 | 0.00 | 0.01 | 0.01 | 56 | 1010.1 |
| 20260504014520 | 42 | 355 | 0.9 | 3.5 | 0.00 | 0.01 | 0.01 | 55 | 1010.2 |
| 20260504013015 | 41 | 355 | 0.9 | 1.7 | 0.00 | 0.01 | 0.01 | 56 | 1010.2 |
| 20260504011515 | 41 | 319 | 0.9 | 1.7 | 0.00 | 0.01 | 0.01 | 56 | 1010.1 |
| 20260504010014 | 41 | 319 | 0.9 | 1.7 | 0.00 | 0.01 | 0.01 | 57 | 1009.9 |
| 20260504004515 | 41 | 319 | 0.9 | 1.7 | 0.00 | 0.01 | 0.01 | 56 | 1009.9 |
| 20260504003013 | 42 | 319 | 0.0 | 2.6 | 0.00 | 0.01 | 0.01 | 56 | 1009.8 |
| 20260504001522 | 42 | 319 | 0.9 | 2.6 | 0.00 | 0.01 | 0.01 | 56 | 1009.7 |
| 20260504000013 | 43 | 255 | 0.0 | 0.9 | 0.00 | 0.01 | 0.01 | 55 | 1009.7 |
| 20260503234512 | 44 | 255 | 0.0 | 2.6 | 0.00 | 0.02 | 0.01 | 54 | 1009.7 |
| 20260503233017 | 44 | 254 | 0.9 | 1.7 | 0.00 | 0.02 | 0.01 | 52 | 1009.5 |
| 20260503231511 | 45 | 259 | 0.9 | 5.2 | 0.00 | 0.02 | 0.01 | 51 | 1009.6 |
| 20260503230028 | 45 | 279 | 3.5 | 11.3 | 0.00 | 0.02 | 0.01 | 49 | 1009.7 |
| 20260503224509 | 46 | 297 | 1.7 | 7.8 | 0.00 | 0.02 | 0.01 | 50 | 1009.7 |
| 20260503223008 | 45 | 325 | 4.3 | 12.2 | 0.00 | 0.02 | 0.01 | 50 | 1009.6 |
| 20260503221508 | 45 | 332 | 4.3 | 10.4 | 0.00 | 0.02 | 0.01 | 49 | 1009.6 |
| 20260503220008 | 45 | 336 | 5.2 | 11.3 | 0.00 | 0.02 | 0.01 | 49 | 1009.7 |
| 20260503214517 | 46 | 321 | 5.2 | 10.4 | 0.00 | 0.02 | 0.01 | 49 | 1009.7 |
| 20260503213004 | 45 | 286 | 5.2 | 10.4 | 0.00 | 0.02 | 0.01 | 52 | 1009.7 |
| 20260503211503 | 44 | 323 | 4.3 | 11.3 | 0.00 | 0.02 | 0.01 | 52 | 1009.6 |
| 20260503210003 | 44 | 306 | 5.2 | 13.9 | 0.00 | 0.02 | 0.01 | 54 | 1009.7 |
| 20260503204501 | 44 | 5 | 7.0 | 13.0 | 0.00 | 0.02 | 0.01 | 54 | 1009.5 |
| 20260503203003 | 43 | 295 | 6.1 | 13.9 | 0.00 | 0.02 | 0.01 | 56 | 1009.7 |
| 20260503201601 | 43 | 264 | 6.1 | 13.0 | 0.00 | 0.02 | 0.01 | 56 | 1009.7 |
| 20260503200100 | 43 | 321 | 7.0 | 14.8 | 0.00 | 0.02 | 0.01 | 56 | 1009.8 |
| 20260503194609 | 44 | 355 | 4.3 | 10.4 | 0.00 | 0.02 | 0.01 | 54 | 1009.7 |
| 20260503193115 | 43 | 316 | 6.1 | 12.2 | 0.00 | 0.02 | 0.01 | 56 | 1009.9 |
| 20260503191611 | 43 | 344 | 6.1 | 14.8 | 0.00 | 0.02 | 0.01 | 56 | 1009.9 |
| 20260503190054 | 44 | 318 | 7.8 | 13.0 | 0.00 | 0.02 | 0.01 | 55 | 1010.1 |
| 20260503184553 | 42 | 348 | 6.1 | 13.0 | 0.00 | 0.02 | 0.01 | 56 | 1010.2 |
| 20260503183053 | 42 | 335 | 7.8 | 20.0 | 0.00 | 0.02 | 0.01 | 58 | 1010.3 |
| 20260503181553 | 44 | 309 | 7.0 | 15.6 | 0.00 | 0.02 | 0.01 | 53 | 1010.2 |
| 20260503180057 | 44 | 319 | 7.0 | 11.3 | 0.00 | 0.02 | 0.01 | 58 | 1010.2 |
| 20260503174553 | 42 | 350 | 6.1 | 17.4 | 0.00 | 0.02 | 0.01 | 62 | 1010.4 |
| 20260503173048 | 42 | 244 | 9.6 | 16.5 | 0.00 | 0.02 | 0.01 | 62 | 1010.4 |
| 20260503171549 | 44 | 5 | 4.3 | 14.8 | 0.00 | 0.02 | 0.01 | 56 | 1010.3 |